sat.trackr.live / text

‹ back to catalog

HULIANWANG DIGUI-82

NORAD 65817 · 2025-220A

PAYLOAD ACTIVE UNKNOWN

§ Identity

Operator
Country
PRC
Launch date
2025-09-27
Launch site
TAISC
Launch vehicle
Mass (kg)
RCS (m²)

External: N2YO · Heavens-Above · Gunter

§ Orbital elements

Epoch: 2026-09-20T13:57:46.710432Z

Period
108.73 min
Inclination
86.5037°
Eccentricity
0.0001288
Mean motion
13.24411501 rev/d
Perigee alt
1,166.9 km
Apogee alt
1,168.9 km
Semi-major
7,546.1 km
B*
4.1675e-5
RAAN
11.6546°
Arg perigee
88.0423°
Mean anomaly
272.0859°
Rev number
4,754

§ Raw data

HULIANWANG DIGUI-821 65817U 25220A   26263.58179063  .00000033  00000+0  41675-4 0  99982 65817  86.5037  11.6546 0001288  88.0423 272.0859 13.24411501 47540

JSON: /api/v1/satellites/65817 · /tle

For live sub-satellite position, see the globe view (requires WebGL).

§ Visibility from observer

Set your observer location to see the next 7 days of passes ≥ 10°. The values pass through the URL so the page stays shareable.

No JS? Fill the form by hand. The geolocation button needs JavaScript.